Regional Weather Roundup
Issued by NWS

Current Version | Previous Version | Text Only | Print | Product List | Glossary On
Versions: 1 2 3 4 5 6 7 8 9 10 11 12 13 14 15 16 17 18 19 20 21 22 23 24 25 26 27 28 29 30 31 32 33 34 35 36 37 38 39 40 41 42 43 44 45 46 47 48 49 50
000
ASUS45 KABQ 311010
RWRNM
WEATHER ROUNDUP FOR NEW MEXICO
NATIONAL WEATHER SERVICE ALBUQUERQUE NM
400 AM MDT FRI OCT 31 2014

NOTE: "FAIR" MEANS FEW OR NO CLOUDS BELOW 12,000 FEET AGL WITH NO
       SIGNIFICANT WEATHER OR OBSTRUCTIONS TO VISION.

      THIS PRODUCT IS RELEASED AS TWO VERSIONS.  ONE VERSION NEAR
      THE TOP OF THE HOUR CONTAINING PRELIMINARY DATA FROM ALBUQUERQUE
      AND OTHER STATIONS.  A FINAL VERSION WITH ADDITIONAL DATA IS
      ISSUED ABOUT 10 MINUTES AFTER THE HOUR.

NMZ501-503-504-510>518-311100-
NORTHWEST PLATEAU/NORTHCENTRAL MOUNTAINS

CITY           SKY/WX    TMP DP  RH WIND       PRES   REMARKS
FARMINGTON     CLEAR     42  22  44 E12       30.27F
LOS ALAMOS     CLEAR     45  22  41 SW12      30.45S
SANTA FE       CLEAR     40  21  46 S8        30.41S WCI  34
TAOS           CLEAR     28  10  47 N3        30.42F
ANGEL FIRE     FAIR      18  14  82 CALM      30.48F

$$
NMZ402-403-502-505>509-311100-
WESTCENTRAL MOUNTAINS/SOUTHWEST MOUNTAINS

CITY           SKY/WX    TMP DP  RH WIND       PRES   REMARKS
GALLUP         MOCLDY    50  17  27 S9        30.30S
GRANTS         PTCLDY    46  21  36 S10       30.36S

$$
NMZ407-409-411-412-311100-
SOUTHERN DESERTS

CITY           SKY/WX    TMP DP  RH WIND       PRES   REMARKS
LORDSBURG      FAIR      55  32  41 SE10      30.20F
DEMING         CLEAR     53  34  48 NE10      30.25S
LAS CRUCES     CLEAR     60  41  50 SE9       30.27S
HOLLOMAN AFB   CLEAR     46  31  54 N9        30.26F
T OR C         PTCLDY    48  27  44 NW7       30.29R

$$
NMZ519>523-311100-
CENTRAL VALLEYS/CENTRAL HIGHLANDS

CITY           SKY/WX    TMP DP  RH WIND       PRES   REMARKS
ALBUQUERQUE    PTCLDY    54  24  31 E18       30.34S
DOUBLE EAGLE   PTCLDY    49  25  38 E10       30.36F
MORIARTY ARPT  FAIR      27  17  65 NE6       30.44F WCI  20
CLINES CORNERS CLEAR     36  22  56 E10       30.44S WCI  28
BELEN          NOT AVBL
SOCORRO        FAIR      47  29  50 CALM      30.31S

$$
NMZ524>526-539-540-311100-
SOUTHCENTRAL MOUNTAINS

CITY           SKY/WX    TMP DP  RH WIND       PRES   REMARKS
RUIDOSO        PTCLDY    41  27  56 S5        30.47R

$$
NMZ527>531-311100-
NORTHEAST HIGHLANDS/NORTHEAST PLAINS

CITY           SKY/WX    TMP DP  RH WIND       PRES   REMARKS
LAS VEGAS      CLEAR     31  20  63 NE6       30.46S WCI  25
RATON          PTCLDY    34  22  61 NE3       30.43F
CLAYTON        CLEAR     43  24  47 N6        30.42F

$$
NMZ532>537-311100-
EASTCENTRAL PLAINS

CITY           SKY/WX    TMP DP  RH WIND       PRES   REMARKS
TUCUMCARI      CLEAR     40  27  59 N7        30.39S
CANNON AFB     CLEAR     43  28  56 NE8       30.39S
CLOVIS AIRPORT CLEAR     37  27  65 NE7       30.41S WCI  32

$$
NMZ028-029-538-311100-
SOUTHEAST PLAINS

CITY           SKY/WX    TMP DP  RH WIND       PRES   REMARKS
ROSWELL        CLEAR     46  33  60 W5        30.37R
CARLSBAD       MOCLDY    57  42  57 CALM      30.34S
HOBBS          CLEAR     45  34  65 N5        30.36S


$$



USA.gov is the U.S. government's official web portal to all federal, state and local government web resources and services.